Погода в Маньково

Россия / Забайкальский край     50°51′23″N   117°42′37″E
темп.,
°C
ветер,
м/с
пор.,
м/с
влажн.,
%
обл.,
%
осадки,
мм/ч
давл.,
гПа
погр.,
м
17 апреля, сб
сб1700:00−1сз22290 0.0 101614
03:00−3з22290 0.0 101610
06:00−4юз22310 0.0 101610
09:00+3зюз47303 0.0 1014629
12:00+8зюз67275 0.0 10111156
15:00+12зюз68235 0.0 10081585
18:00+12зюз68225 0.0 10061709
21:00+6юз34335 0.0 100851
18 апреля, вс
вс1800:00+4ююз34400 0.0 100847
03:00+3ю22460 0.0 100721
06:00+1ю225196 0.0 100612
09:00+7ю223711 0.0 1004265
12:00+14з362375 0.0 10022511
15:00+16зсз681768 0.0 10013316
18:00+14зсз882773 0.0 10022467
21:00+8сз511444 0.0 1006351
19 апреля, пн
пн1900:00+4ссз713470 0.0 1011606
03:000ссз611648 0.0 1015684
06:00−3ссз476515 0.0 1019323
09:00−1с57441 0.0 1021989
12:00+2с56230 0.0 10211465
15:00+5ссз45160 0.0 10191784
18:00+6с23130 0.0 10171622
21:00+2вюв11180 0.0 101910
20 апреля, вт
вт2000:000ююв222421 0.0 102014
03:00−1ююв32286 0.0 101828
06:00−2ю34335 0.0 101760
09:00+5ююз615260 0.0 1014683
12:00+13юз913215 0.0 10081255
15:00+17юз9121916 0.0 10052216
18:00+17зюз61320100 0.0 10042848
21:00+11с4934100 0.0 1008381
21 апреля, ср
ср2100:00+9с2241100 0.0 101034
03:00+6ссв2355100 0.0 101165
06:00+5всв1165100 0.0 101018
09:00+8в2655100 0.0 1008419
12:00+11в5750100 0.0 1007868
15:00+12всв6745100 0.0 10041157
18:00+12в5539100 0.0 10031206
21:00+9св3454100 0.0 100381